[[{"header":{"parameterUnit":"m.s-1","parameterCategory":1,"la1":30.2991,"la2":30.254,"lo1":-89.0895,"lo2":-89.0444,"dy":0.0017,"dx":0.0017,"nx":28,"ny":28,"refTime":"2024-11-24T03:00:00:Z","depth":0,"parameterNumber":2,"parameterNumberName":"U-component_of_WINDS"},"data":[0,0,0,0,0,0,0,0,0,0,0,0,0,0,0,0,0,0,0,0,0,0,0,0,0,0,0,0,0,0,0,0,0,0,0,0,0,0,0,0,0,0,0,0,0,0,0,0,0,0,0,0,0,0,0,0,0,0,-0.4802,-0.4801,0,-0.474,-0.4739,-0.4738,-0.4731,-0.4732,-0.4732,-0.4733,-0.4664,-0.4662,-0.466,0,0,0,0,0,0,0,0,0,0,0,0,0,-0.4911,-0.4909,-0.4802,-0.4801,-0.48,-0.474,-0.4739,-0.4738,-0.4731,-0.4732,-0.4732,-0.4733,-0.4665,-0.4662,-0.4659,0,0,0,0,0,0,0,0,0,0,0,0,0,-0.4858,-0.4908,-0.4802,-0.479,-0.4788,-0.474,-0.4739,-0.4738,-0.4731,-0.4732,-0.4733,-0.4733,-0.4666,-0.4663,-0.4659,-0.4618,0,0,-0.4648,-0.4646,0,0,0,0,0,0,0,0,-0.4861,-0.4854,-0.4792,-0.479,-0.4788,-0.4744,-0.4752,-0.4697,-0.473,-0.4752,-0.4733,-0.4734,-0.469,-0.4684,-0.467,-0.4614,-0.4611,-0.4648,-0.4645,-0.4644,-0.4643,0,0,0,0,0,0,0,-0.4864,-0.4856,-0.4777,-0.4791,-0.4789,-0.4786,-0.4779,-0.4742,-0.4716,-0.475,-0.475,-0.4743,-0.4689,-0.4674,-0.4669,-0.461,-0.4648,-0.4644,-0.4642,-0.4641,-0.4517,-0.4516,0,0,0,0,0,0,-0.4871,-0.4859,-0.4779,-0.4775,-0.4828,-0.4783,-0.4776,-0.4757,-0.4717,-0.4712,-0.4742,-0.4743,-0.468,-0.4673,-0.4666,-0.4615,-0.4644,-0.464,-0.4638,-0.4518,-0.4516,-0.4515,0,0,0,0,0,0,-0.4873,-0.4864,-0.4782,-0.4817,-0.4806,-0.478,-0.4759,-0.4756,-0.4741,-0.471,-0.4705,-0.4732,-0.468,-0.4671,-0.463,-0.4612,-0.4639,-0.4636,-0.4519,-0.4517,-0.4516,-0.4512,0,0,0,0,0,0,-0.4876,-0.4865,-0.485,-0.4817,-0.4805,-0.4748,-0.4758,-0.4754,-0.4735,-0.4735,-0.4699,-0.4694,-0.468,-0.4635,-0.4626,-0.4608,-0.4633,-0.4521,-0.4518,-0.4516,-0.4513,-0.451,-0.4507,0,0,0,0,0,-0.488,-0.485,-0.4849,-0.4839,-0.4786,-0.4747,-0.474,-0.4725,-0.4734,-0.4717,-0.4698,-0.4695,-0.4616,-0.4631,-0.4621,-0.4601,-0.4522,-0.4519,-0.4516,-0.4514,-0.4511,-0.4507,0,0,0,0,0,0,-0.488,-0.4846,-0.4844,-0.4803,-0.4778,-0.4746,-0.4725,-0.4722,-0.4693,-0.4694,-0.4676,-0.4668,-0.4627,-0.461,-0.4628,-0.4558,-0.4569,-0.4565,-0.4571,-0.4567,-0.4564,-0.4569,-0.463,0,0,0,0,0,-0.4876,-0.4848,-0.4819,-0.4785,-0.4773,-0.4751,-0.4734,-0.4725,-0.4698,-0.4687,-0.4665,-0.4637,-0.4606,-0.4586,-0.4555,-0.4511,-0.4502,-0.4492,-0.4489,-0.4487,-0.4483,-0.4457,-0.4452,-0.4507,-0.4507,-0.4507,0,0,-0.4865,-0.4843,-0.4826,-0.4785,-0.4764,-0.4735,-0.4742,-0.4711,-0.4689,-0.4682,-0.4642,-0.4624,-0.4592,-0.4549,-0.4529,-0.4534,-0.4466,-0.4484,-0.4482,-0.4479,-0.4454,-0.4449,-0.4444,-0.4505,-0.4505,-0.4506,0,0,-0.4831,-0.4812,-0.4782,-0.4762,-0.4732,-0.4717,-0.471,-0.4678,-0.4667,-0.4627,-0.4621,-0.4593,-0.454,-0.4518,-0.4499,-0.4457,-0.4453,-0.4448,-0.4432,-0.4407,-0.4403,-0.4399,-0.4383,-0.4378,-0.4444,-0.4444,-0.4444,0,-0.4822,-0.4779,-0.4766,-0.4735,-0.4717,-0.4711,-0.4679,-0.4659,-0.462,-0.4607,-0.4613,-0.4546,-0.4524,-0.4476,-0.4465,-0.4451,-0.4441,-0.4451,-0.4405,-0.4401,-0.4397,-0.4381,-0.4376,-0.4443,-0.4443,-0.4444,-0.4444,0,-0.4768,-0.4739,-0.4718,-0.4682,-0.466,-0.4629,-0.4611,-0.459,-0.4584,-0.4568,-0.4527,-0.4501,-0.4465,-0.4453,-0.4445,-0.4402,-0.4406,-0.4409,-0.4419,-0.4391,-0.4377,-0.4371,-0.4443,-0.4443,-0.4443,-0.4443,0,0,-0.4732,-0.469,-0.4682,-0.4666,-0.4632,-0.4608,-0.4576,-0.4543,-0.4525,-0.4499,-0.4471,-0.4426,-0.4428,-0.4407,-0.4397,-0.4376,-0.4343,-0.4381,-0.438,-0.4374,-0.4294,-0.4292,-0.4285,-0.4341,-0.434,-0.4339,-0.4296,0,-0.4694,-0.4639,-0.4626,-0.4578,-0.455,-0.4544,-0.4516,-0.4491,-0.4476,-0.4449,-0.4432,-0.44,-0.4406,-0.4393,-0.4372,-0.4352,-0.4327,-0.4355,-0.4313,-0.4312,-0.4321,-0.4278,-0.4275,-0.4236,-0.429,-0.4289,-0.4289,0,-0.4642,-0.4615,-0.4565,-0.4535,-0.4522,-0.4498,-0.4466,-0.4441,-0.4412,-0.4403,-0.438,-0.4372,-0.4337,-0.435,-0.4301,-0.432,-0.4303,-0.429,-0.4288,-0.4283,-0.4298,-0.427,-0.4224,-0.4218,-0.428,-0.428,-0.4281,0,-0.462,-0.4571,-0.4535,-0.4521,-0.4485,-0.4468,-0.4452,-0.4425,-0.4405,-0.4377,-0.4364,-0.4331,-0.4313,-0.4287,-0.427,-0.4281,-0.4222,-0.4234,-0.4212,-0.4213,-0.4199,-0.42,-0.4148,-0.4189,-0.4189,-0.4189,-0.419,0,-0.4578,-0.4547,-0.4524,-0.4502,-0.4466,-0.4452,-0.4417,-0.4401,-0.4377,-0.435,-0.4342,-0.4317,-0.4296,-0.4268,-0.4254,-0.4215,-0.4207,-0.4197,-0.4194,-0.4198,-0.4199,-0.4185,-0.4187,-0.4188,-0.4188,-0.4188,-0.4189,0,-0.4547,-0.4531,-0.449,-0.446,-0.4452,-0.4427,-0.4401,-0.4378,-0.4363,-0.4329,-0.432,-0.4296,-0.4262,-0.4242,-0.4199,-0.419,-0.4146,-0.4145,-0.4156,-0.4155,-0.4134,-0.4136,-0.4071,-0.4061,-0.4109,-0.4109,-0.4108,0,-0.4521,-0.4498,-0.4465,-0.4447,-0.4432,-0.4403,-0.4383,-0.4368,-0.4347,-0.4314,-0.4294,-0.426,-0.4232,-0.4178,-0.4155,-0.4122,-0.4119,-0.4098,-0.4114,-0.4118,-0.4118,-0.4119,-0.4116,-0.4095,-0.4095,-0.4095,-0.4094,0,-0.4477,-0.447,-0.4443,-0.4413,-0.439,-0.4365,-0.4341,-0.4326,-0.4306,-0.4283,-0.425,-0.4228,-0.4184,-0.415,-0.4115,-0.4097,-0.4092,-0.409,-0.4083,-0.4086,-0.4094,-0.4089,-0.4148,-0.4091,-0.4091,-0.4092,-0.4092,-0.4092,-0.4447,-0.4426,-0.44,-0.437,-0.435,-0.4327,-0.4304,-0.4287,-0.4258,-0.4223,-0.4215,-0.4179,-0.415,-0.4103,-0.4084,-0.4055,-0.4058,-0.4048,-0.4046,-0.4043,-0.4043,-0.4099,-0.4048,-0.4048,-0.4048,-0.4048,-0.4048,0,-0.4402,-0.4386,-0.4358,-0.4324,-0.43,-0.4299,-0.4272,-0.4251,-0.422,-0.4195,-0.4168,-0.4128,-0.4095,-0.407,-0.4036,-0.4017,-0.4014,-0.4008,-0.4009,-0.4005,-0.4042,-0.4051,-0.4012,-0.4012,-0.4012,-0.4012,-0.4012,-0.4012,-0.4376,-0.434,-0.433,-0.4283,-0.4266,-0.4231,-0.4216,-0.4194,-0.4174,-0.4131,-0.4104,-0.4088,-0.4063,-0.4027,-0.3996,-0.3989,-0.3976,-0.3971,-0.3964,-0.3999,-0.4003,-0.4006,-0.4015,-0.3969,-0.3969,-0.393,-0.393,-0.393]},{"header":{"parameterUnit":"m.s-1","parameterCategory":1,"la1":30.2991,"la2":30.254,"lo1":-89.0895,"lo2":-89.0444,"dy":0.0017,"dx":0.0017,"nx":28,"ny":28,"refTime":"2024-11-24T03:00:00:Z","depth":0,"parameterNumber":3,"parameterNumberName":"V-component_of_WINDS"},"data":[0,0,0,0,0,0,0,0,0,0,0,0,0,0,0,0,0,0,0,0,0,0,0,0,0,0,0,0,0,0,0,0,0,0,0,0,0,0,0,0,0,0,0,0,0,0,0,0,0,0,0,0,0,0,0,0,0,0,3.2305,3.2307,0,3.251,3.2512,3.2514,3.2473,3.247,3.2466,3.2462,3.2667,3.2676,3.2685,0,0,0,0,0,0,0,0,0,0,0,0,0,3.1875,3.1883,3.2305,3.2307,3.231,3.2509,3.2512,3.2515,3.2474,3.2469,3.2465,3.2461,3.2664,3.2675,3.2686,0,0,0,0,0,0,0,0,0,0,0,0,0,3.2069,3.1886,3.2304,3.2314,3.2316,3.2509,3.2512,3.2516,3.2475,3.2469,3.2464,3.2458,3.2661,3.2674,3.2687,3.2882,0,0,3.2728,3.2734,0,0,0,0,0,0,0,0,3.2058,3.2085,3.231,3.2313,3.2317,3.246,3.2436,3.2638,3.2476,3.2415,3.2462,3.2456,3.2603,3.2621,3.2671,3.2891,3.29,3.2729,3.2737,3.2743,3.2747,0,0,0,0,0,0,0,3.2044,3.2076,3.2386,3.2313,3.2317,3.2306,3.2328,3.2474,3.2537,3.242,3.2417,3.2442,3.2604,3.2658,3.2676,3.2903,3.2729,3.2741,3.2749,3.2754,3.3295,3.3301,0,0,0,0,0,0,3.2028,3.2065,3.2379,3.2392,3.2171,3.2319,3.2343,3.242,3.2536,3.2548,3.2447,3.2439,3.2638,3.266,3.2683,3.292,3.2743,3.2756,3.2763,3.3289,3.3297,3.3303,0,0,0,0,0,0,3.2019,3.2057,3.2371,3.2228,3.2267,3.2332,3.2419,3.2427,3.2482,3.2556,3.2567,3.2491,3.2635,3.2664,3.2833,3.2926,3.2762,3.2774,3.3282,3.3291,3.33,3.3395,0,0,0,0,0,0,3.2007,3.2054,3.2129,3.223,3.2275,3.252,3.2425,3.2435,3.2505,3.2498,3.2601,3.2613,3.2632,3.2814,3.2847,3.2942,3.2784,3.3273,3.3286,3.3297,3.3384,3.3406,3.3426,0,0,0,0,0,3.1992,3.2146,3.2133,3.2171,3.237,3.2525,3.2551,3.2572,3.2513,3.2589,3.2637,3.2609,3.2911,3.2831,3.2868,3.2969,3.3268,3.3282,3.3296,3.3374,3.3402,3.3425,0,0,0,0,0,0,3.2052,3.2159,3.2146,3.2338,3.2423,3.2518,3.2614,3.26,3.2702,3.2691,3.2711,3.2735,3.2908,3.2955,3.2865,3.3164,3.3081,3.3103,3.3127,3.3154,3.3175,3.316,3.2796,0,0,0,0,0,3.2088,3.2206,3.2292,3.2453,3.2497,3.2549,3.2616,3.2626,3.2714,3.2749,3.281,3.2895,3.301,3.3084,3.3193,3.339,3.3412,3.3477,3.3498,3.3515,3.3534,3.3643,3.3674,3.335,3.335,3.335,0,0,3.2163,3.2236,3.2309,3.2467,3.2534,3.2656,3.2579,3.2709,3.2799,3.2768,3.2934,3.2981,3.3078,3.3263,3.3347,3.3307,3.3629,3.3533,3.3546,3.3556,3.3661,3.3692,3.3719,3.336,3.3358,3.3357,0,0,3.2362,3.2429,3.2571,3.264,3.2744,3.2777,3.2812,3.291,3.2941,3.3107,3.3087,3.3193,3.3389,3.346,3.3521,3.3749,3.3727,3.3783,3.3893,3.3999,3.4025,3.4048,3.413,3.416,3.3802,3.3802,3.3802,0,3.2442,3.2624,3.2645,3.278,3.285,3.283,3.2974,3.304,3.3173,3.3222,3.3175,3.3422,3.3486,3.3688,3.3744,3.3793,3.3833,3.3772,3.402,3.4043,3.4064,3.4143,3.4174,3.3808,3.3808,3.3807,3.3806,0,3.2718,3.2845,3.2947,3.3079,3.3161,3.3299,3.3341,3.3421,3.3423,3.3462,3.3631,3.3707,3.3832,3.388,3.3883,3.4084,3.4056,3.4015,3.3932,3.4101,3.4176,3.4206,3.3817,3.3815,3.3813,3.3812,0,0,3.296,3.3103,3.3141,3.3201,3.3314,3.3413,3.355,3.3674,3.3743,3.3836,3.3952,3.4119,3.4082,3.4152,3.4162,3.4255,3.4433,3.4203,3.4206,3.4244,3.466,3.4691,3.4726,3.4419,3.4425,3.443,3.4652,0,3.317,3.3415,3.3439,3.3657,3.3776,3.3759,3.3879,3.3961,3.4001,3.4106,3.4148,3.4268,3.421,3.4252,3.4343,3.4392,3.4517,3.4376,3.4527,3.4532,3.4505,3.4765,3.4798,3.5005,3.4682,3.4687,3.469,0,3.3448,3.3552,3.3783,3.3882,3.3933,3.404,3.4157,3.4258,3.4351,3.4373,3.4453,3.4451,3.4592,3.4503,3.4698,3.4602,3.4665,3.4698,3.4707,3.4722,3.4622,3.4789,3.5071,3.5103,3.4736,3.4732,3.4729,0,3.3604,3.3801,3.3965,3.4017,3.4136,3.4212,3.4265,3.4353,3.4427,3.4528,3.4576,3.4692,3.4755,3.4845,3.4874,3.4806,3.5069,3.4981,3.5091,3.5091,3.5148,3.5144,3.5445,3.5186,3.5186,3.5185,3.5184,0,3.3837,3.3979,3.4037,3.4138,3.4298,3.4323,3.448,3.4528,3.4607,3.4717,3.4708,3.4811,3.4843,3.4952,3.4975,3.5134,3.5162,3.5184,3.5189,3.5186,3.5184,3.5228,3.5215,3.5193,3.5192,3.519,3.5188,0,3.4038,3.4082,3.426,3.4359,3.4388,3.4501,3.4585,3.4683,3.4721,3.4861,3.4895,3.4955,3.5082,3.5121,3.5273,3.5289,3.5476,3.5466,3.5445,3.5446,3.5554,3.5544,3.5896,3.5944,3.5652,3.5654,3.5657,0,3.4184,3.4294,3.4405,3.448,3.4536,3.4655,3.4732,3.4761,3.484,3.4956,3.504,3.5166,3.5269,3.5474,3.553,3.5647,3.5642,3.5757,3.5659,3.5653,3.5645,3.5639,3.5651,3.5776,3.5779,3.5781,3.5783,0,3.444,3.4457,3.4568,3.4688,3.478,3.4874,3.4966,3.5027,3.5069,3.5159,3.5291,3.5371,3.5528,3.5654,3.5774,3.5826,3.5813,3.5814,3.5846,3.5844,3.5828,3.584,3.5497,3.5806,3.5803,3.5802,3.58,3.58,3.4619,3.4717,3.4811,3.4936,3.5008,3.5094,3.5192,3.5244,3.5355,3.5487,3.5497,3.564,3.573,3.589,3.5949,3.6061,3.6027,3.6073,3.6084,3.6096,3.6106,3.581,3.6082,3.6082,3.6081,3.6081,3.608,0,3.4875,3.4936,3.5051,3.518,3.5278,3.5259,3.5359,3.5442,3.5569,3.5656,3.5758,3.591,3.6033,3.61,3.6222,3.6299,3.6296,3.633,3.6325,3.6338,3.6128,3.6089,3.6331,3.6331,3.6331,3.6331,3.6331,3.6331,3.5021,3.5186,3.5214,3.5415,3.5474,3.5616,3.5676,3.5755,3.5825,3.5996,3.6099,3.6143,3.6222,3.635,3.6462,3.6478,3.6524,3.6563,3.6576,3.6378,3.6353,3.6328,3.6292,3.6572,3.6573,3.6777,3.6779,3.678]}]]